User: anonymous   Login
Location: Caltech
(34.1382°N, 118.1253°W)
Time: 22:27:33
(UTC-07:00)
Language:

RESURS DK-1 - Orbit

View from above orbital plane
View from above orbital plane
View from above satellite
View from above satellite

Ground track
Ground track

The orbit data is extracted from the following two-line orbital elements,

1 29228U 06021A   16268.86811235  .00000363  00000-0  35056-4 0  9994
2 29228  69.9357  53.0251 0004295 347.7558  12.3497 15.01990672568262
Epoch (UTC): 24 September 2016 20:50:04
Eccentricity: 0.0004295
inclination: 69.9357°
perigee height: 558 km
apogee height: 564 km
right ascension of ascending node: 53.0251°
argument of perigee: 347.7558°
revolutions per day: 15.01990672
mean anomaly at epoch: 12.3497°
orbit number at epoch: 56826

The dashed part of the orbit path shows where the satellite is in the earth's shadow,  

DLR